| time (UTC) | temp F | wind direction | speed MPH | gust MPH | rain 1hr in | rain 24hr in | rain mn in | humidity % | barometer mb |
| 20260509214540 | 88 | 194 | 3.0 | 7.0 | 0.00 | 0.01 | 0.01 | 48 | 1009.3 |
| 20260509213039 | 87 | 193 | 4.0 | 9.0 | 0.00 | 0.01 | 0.01 | 49 | 1009.4 |
| 20260509211542 | 86 | 122 | 3.0 | 8.0 | 0.00 | 0.01 | 0.01 | 49 | 1009.5 |
| 20260509210036 | 85 | 275 | 4.0 | 8.0 | 0.00 | 0.01 | 0.01 | 51 | 1009.8 |
| 20260509204542 | 85 | 166 | 3.0 | 10.0 | 0.00 | 0.01 | 0.01 | 51 | 1010.3 |
| 20260509203037 | 85 | 201 | 2.0 | 7.0 | 0.00 | 0.01 | 0.01 | 52 | 1010.4 |
| 20260509201535 | 84 | 278 | 3.0 | 9.0 | 0.00 | 0.01 | 0.01 | 52 | 1010.7 |
| 20260509200041 | 84 | 221 | 3.0 | 7.0 | 0.00 | 0.01 | 0.01 | 56 | 1010.9 |
| 20260509194541 | 85 | 216 | 2.0 | 5.0 | 0.00 | 0.01 | 0.01 | 58 | 1011.1 |
| 20260509193041 | 83 | 218 | 5.0 | 9.0 | 0.00 | 0.01 | 0.01 | 58 | 1011.3 |
| 20260509191533 | 83 | 226 | 4.0 | 9.0 | 0.00 | 0.01 | 0.01 | 58 | 1011.4 |
| 20260509190032 | 83 | 221 | 4.0 | 7.0 | 0.00 | 0.01 | 0.01 | 62 | 1011.4 |
| 20260509184539 | 82 | 160 | 4.0 | 9.0 | 0.00 | 0.01 | 0.01 | 58 | 1011.5 |
| 20260509183036 | 81 | 238 | 6.0 | 10.0 | 0.00 | 0.01 | 0.01 | 61 | 1011.6 |
| 20260509181536 | 81 | 181 | 4.0 | 8.0 | 0.00 | 0.01 | 0.01 | 63 | 1011.9 |
| 20260509180033 | 81 | 273 | 2.0 | 8.0 | 0.00 | 0.01 | 0.01 | 68 | 1012.0 |
| 20260509174536 | 80 | 210 | 2.0 | 8.0 | 0.00 | 0.01 | 0.01 | 67 | 1012.2 |
| 20260509173043 | 80 | 223 | 4.0 | 9.0 | 0.00 | 0.01 | 0.01 | 67 | 1012.4 |
| 20260509171538 | 80 | 302 | 2.0 | 7.0 | 0.00 | 0.01 | 0.01 | 70 | 1012.4 |
| 20260509170040 | 79 | 184 | 3.0 | 10.0 | 0.00 | 0.01 | 0.01 | 73 | 1012.5 |
| 20260509164535 | 78 | 293 | 1.0 | 6.0 | 0.00 | 0.01 | 0.01 | 73 | 1012.7 |
| 20260509163039 | 77 | 282 | 1.0 | 5.0 | 0.00 | 0.01 | 0.01 | 75 | 1012.8 |
| 20260509161537 | 77 | 227 | 0.0 | 4.0 | 0.00 | 0.01 | 0.01 | 76 | 1012.9 |
| 20260509160036 | 76 | 97 | 3.0 | 5.0 | 0.00 | 0.01 | 0.01 | 79 | 1012.8 |
| 20260509154535 | 75 | 203 | 2.0 | 6.0 | 0.00 | 0.01 | 0.01 | 78 | 1012.7 |
| 20260509153034 | 74 | 309 | 1.0 | 6.0 | 0.00 | 0.01 | 0.01 | 82 | 1012.3 |
| 20260509151534 | 73 | 197 | 1.0 | 5.0 | 0.00 | 0.01 | 0.01 | 84 | 1012.3 |
| 20260509150033 | 72 | 238 | 3.0 | 5.0 | 0.00 | 0.01 | 0.01 | 83 | 1012.2 |
| 20260509144546 | 71 | 314 | 2.0 | 6.0 | 0.00 | 0.01 | 0.01 | 86 | 1012.3 |
| 20260509143040 | 70 | 229 | 4.0 | 9.0 | 0.00 | 0.01 | 0.01 | 87 | 1012.0 |
| 20260509141538 | 69 | 216 | 3.0 | 6.0 | 0.00 | 0.01 | 0.01 | 87 | 1012.2 |
| 20260509140056 | 71 | 248 | 1.0 | 6.0 | 0.00 | 0.01 | 0.01 | 85 | 1012.1 |
| 20260509134534 | 68 | 246 | 2.0 | 4.0 | 0.00 | 0.01 | 0.01 | 90 | 1012.1 |
| 20260509133038 | 68 | 228 | 2.0 | 5.0 | 0.00 | 0.01 | 0.01 | 89 | 1012.1 |
| 20260509131542 | 69 | 217 | 1.0 | 4.0 | 0.00 | 0.01 | 0.01 | 88 | 1011.8 |
| 20260509130034 | 68 | 252 | 2.0 | 3.0 | 0.00 | 0.01 | 0.01 | 89 | 1011.7 |
| 20260509124536 | 67 | 293 | 2.0 | 5.0 | 0.00 | 0.01 | 0.01 | 92 | 1011.7 |
| 20260509123035 | 65 | 275 | 2.0 | 5.0 | 0.00 | 0.01 | 0.01 | 95 | 1011.9 |
| 20260509121548 | 63 | 326 | 1.0 | 5.0 | 0.00 | 0.01 | 0.01 | 96 | 1011.8 |
| 20260509120037 | 63 | 210 | 4.0 | 7.0 | 0.00 | 0.01 | 0.01 | 96 | 1011.3 |
| 20260509114534 | 63 | 208 | 3.0 | 8.0 | 0.00 | 0.01 | 0.01 | 96 | 1011.5 |
| 20260509113035 | 64 | 153 | 8.0 | 10.0 | 0.00 | 0.01 | 0.01 | 96 | 1011.7 |
| 20260509111535 | 64 | 130 | 7.0 | 10.0 | 0.00 | 0.01 | 0.01 | 96 | 1012.3 |
| 20260509110038 | 64 | 92 | 7.0 | 12.0 | 0.00 | 0.01 | 0.01 | 96 | 1012.4 |
| 20260509104535 | 63 | 37 | 5.0 | 9.0 | 0.00 | 0.01 | 0.01 | 96 | 1012.8 |
| 20260509103103 | 61 | 69 | 2.0 | 3.0 | 0.00 | 0.01 | 0.01 | 96 | 1012.2 |
| 20260509101533 | 62 | 139 | 1.0 | 2.0 | 0.00 | 0.01 | 0.01 | 95 | 1012.2 |
| 20260509100034 | 63 | 35 | 0.0 | 2.0 | 0.00 | 0.01 | 0.01 | 96 | 1012.3 |
| 20260509094537 | 63 | 326 | 3.0 | 5.0 | 0.01 | 0.01 | 0.01 | 96 | 1012.4 |
| 20260509093035 | 63 | 316 | 2.0 | 6.0 | 0.01 | 0.01 | 0.01 | 96 | 1012.3 |
| 20260509091535 | 63 | 17 | 5.0 | 8.0 | 0.01 | 0.01 | 0.01 | 96 | 1012.4 |
| 20260509090035 | 63 | 335 | 7.0 | 12.0 | 0.00 | 0.00 | 0.00 | 96 | 1012.1 |
| 20260509084542 | 63 | 226 | 0.0 | 6.0 | 0.00 | 0.00 | 0.00 | 96 | 1010.9 |
| 20260509083046 | 63 | 163 | 3.0 | 6.0 | 0.00 | 0.00 | 0.00 | 95 | 1010.8 |
| 20260509081533 | 64 | 195 | 3.0 | 4.0 | 0.00 | 0.00 | 0.00 | 95 | 1011.0 |
| 20260509080033 | 63 | 211 | 2.0 | 4.0 | 0.00 | 0.00 | 0.00 | 95 | 1011.1 |
| 20260509074534 | 64 | 129 | 1.0 | 3.0 | 0.00 | 0.00 | 0.00 | 94 | 1011.2 |
| 20260509073044 | 64 | 203 | 2.0 | 5.0 | 0.00 | 0.00 | 0.00 | 95 | 1011.3 |
| 20260509071535 | 64 | 174 | 1.0 | 2.0 | 0.00 | 0.00 | 0.00 | 95 | 1011.3 |
| 20260509070037 | 65 | 0 | 0.0 | 1.0 | 0.00 | 0.00 | 0.00 | 94 | 1011.3 |
| 20260509064534 | 65 | 146 | 0.0 | 3.0 | 0.00 | 0.00 | 0.00 | 94 | 1011.4 |
| 20260509063036 | 66 | 140 | 3.0 | 6.0 | 0.00 | 0.00 | 0.00 | 93 | 1011.5 |
| 20260509061540 | 67 | 198 | 3.0 | 5.0 | 0.00 | 0.00 | 0.00 | 93 | 1011.4 |
| 20260509060038 | 67 | 174 | 3.0 | 7.0 | 0.00 | 0.00 | 0.00 | 93 | 1011.4 |
| 20260509054539 | 67 | 212 | 3.0 | 7.0 | 0.00 | 0.00 | 0.00 | 93 | 1011.4 |
| 20260509053046 | 67 | 152 | 4.0 | 8.0 | 0.00 | 0.00 | 0.00 | 94 | 1011.5 |
| 20260509051535 | 66 | 202 | 3.0 | 7.0 | 0.00 | 0.00 | 0.00 | 95 | 1011.6 |
| 20260509050035 | 65 | 0 | 0.0 | 0.0 | 0.00 | 0.00 | 0.00 | 95 | 1011.0 |
| 20260509044536 | 65 | 0 | 0.0 | 0.0 | 0.00 | 0.00 | 0.00 | 95 | 1010.7 |
| 20260509043050 | 65 | 0 | 0.0 | 1.0 | 0.00 | 0.00 | 0.00 | 94 | 1010.8 |
| 20260509041542 | 66 | 0 | 0.0 | 1.0 | 0.00 | 0.00 | 0.00 | 94 | 1010.7 |
| 20260509040033 | 66 | 262 | 2.0 | 3.0 | 0.00 | 0.00 | 0.00 | 93 | 1010.8 |
| 20260509034542 | 67 | 142 | 2.0 | 5.0 | 0.00 | 0.00 | 0.00 | 92 | 1010.1 |
| 20260509033036 | 68 | 176 | 3.0 | 6.0 | 0.00 | 0.00 | 0.00 | 92 | 1009.9 |
| 20260509031534 | 68 | 142 | 4.0 | 5.0 | 0.00 | 0.00 | 0.00 | 92 | 1009.8 |
| 20260509030036 | 68 | 153 | 4.0 | 5.0 | 0.00 | 0.00 | 0.00 | 92 | 1009.7 |
| 20260509024535 | 68 | 129 | 2.0 | 3.0 | 0.00 | 0.00 | 0.00 | 91 | 1009.7 |
| 20260509023038 | 70 | 103 | 1.0 | 3.0 | 0.00 | 0.00 | 0.00 | 90 | 1009.6 |
| 20260509021536 | 70 | 89 | 2.0 | 3.0 | 0.00 | 0.00 | 0.00 | 89 | 1009.5 |
| 20260509020042 | 71 | 96 | 2.0 | 3.0 | 0.00 | 0.00 | 0.00 | 89 | 1009.3 |
| 20260509014532 | 71 | 93 | 2.0 | 4.0 | 0.00 | 0.00 | 0.00 | 88 | 1009.1 |
| 20260509013047 | 71 | 103 | 2.0 | 3.0 | 0.00 | 0.00 | 0.00 | 87 | 1009.0 |
| 20260509011537 | 72 | 65 | 1.0 | 2.0 | 0.00 | 0.00 | 0.00 | 85 | 1009.1 |
| 20260509010048 | 74 | 98 | 2.0 | 6.0 | 0.00 | 0.00 | 0.00 | 81 | 1008.9 |
| 20260509004535 | 76 | 139 | 4.0 | 6.0 | 0.00 | 0.00 | 0.00 | 78 | 1008.4 |
| 20260509003035 | 78 | 115 | 4.0 | 9.0 | 0.00 | 0.00 | 0.00 | 76 | 1008.5 |
| 20260509001532 | 78 | 79 | 5.0 | 11.0 | 0.00 | 0.00 | 0.00 | 75 | 1008.4 |
| 20260509000031 | 79 | 109 | 6.0 | 11.0 | 0.00 | 0.00 | 0.00 | 72 | 1008.5 |
| 20260508234536 | 80 | 129 | 7.0 | 11.0 | 0.00 | 0.00 | 0.00 | 70 | 1008.4 |
| 20260508233033 | 81 | 96 | 7.0 | 10.0 | 0.00 | 0.00 | 0.00 | 69 | 1008.5 |
| 20260508231532 | 81 | 140 | 6.0 | 9.0 | 0.00 | 0.00 | 0.00 | 69 | 1008.2 |
| 20260508230047 | 78 | 163 | 5.0 | 8.0 | 0.00 | 0.00 | 0.00 | 75 | 1008.3 |
| 20260508224543 | 78 | 123 | 6.0 | 9.0 | 0.00 | 0.00 | 0.00 | 75 | 1008.3 |
| 20260508223039 | 79 | 119 | 7.0 | 10.0 | 0.00 | 0.00 | 0.00 | 71 | 1008.5 |
| 20260508221544 | 79 | 158 | 5.0 | 10.0 | 0.00 | 0.00 | 0.00 | 72 | 1008.6 |
| 20260508220036 | 81 | 150 | 3.0 | 7.0 | 0.00 | 0.00 | 0.00 | 71 | 1008.8 |